Regional Weather Roundup
Issued by NWS Jackson, KY

Home | Current Version | Previous Version | Text Only | Print | Product List | Glossary Off
Versions: 1 2 3 4 5 6 7 8 9 10 11 12 13 14 15 16 17 18 19 20 21 22 23 24 25 26 27 28 29 30 31 32 33 34 35 36 37 38 39 40 41 42 43 44 45 46 47 48 49 50

000
ASUS43 KJKL 290010
RWRJKL

EAST KENTUCKY HOURLY WEATHER ROUNDUP
NATIONAL WEATHER SERVICE JACKSON KY
700 PM EST SUN DEC 28 2014

NOTE: "FAIR" INDICATES FEW OR NO CLOUDS BELOW 12,000 FEET WITH
NO SIGNIFICANT WEATHER AND/OR OBSTRUCTIONS TO VISIBILITY.

* THESE REPORTS ARE NOT UNDER NWS QUALITY CONTROL AND MAY NOT
  REPORT WEATHER SUCH AS PRECIPITATION AND FOG.

KYZ079-080-083-085-087-088-110-112-115-119-120-290100
...EASTERN KENTUCKY...

CITY           SKY/WX    TMP DP  RH WIND       PRES   REMARKS
JACKSON        LGT RAIN  39  37  92 NW6       30.14R WCI  35
6HR MIN TEMP:  39; 6HR MAX TEMP:  42;

LONDON         LGT RAIN  42  37  82 NW6       30.15R
6HR MIN TEMP:  42; 6HR MAX TEMP:  44; 6HR PCP:  0.07;

SOMERSET*      DRIZZLE   37  37 100 N3        30.18R
MONTICELLO*    CLOUDY    41  40  96 N6        30.19R FOG
6HR MIN TEMP:  41; 6HR MAX TEMP:  43; 6HR PCP:  0.04;

MIDDLESBORO*   DRIZZLE   46  44  95 CALM      30.13R
6HR MIN TEMP:  46; 6HR MAX TEMP:  50; 6HR PCP:  0.03;

HARLAN APT*    CLOUDY    45  45 100 N3        30.12R
HAZARD APT*    LGT RAIN  41  41 100 N6        30.14R
BLACK MTN*       N/A     41  41 100 N1          N/A
PIKEVILLE APT* DRIZZLE   39  39 100 N5        30.12R
BIG SANDY*     RAIN      41  40  99 N3        30.13R
6HR MIN TEMP:  41; 6HR MAX TEMP:  44;

MOREHEAD APT*  CLOUDY    36  34  93 N6        30.18S FOG     WCI  31
$$

KYZ035-036-041-042-044-050-067-078-099-290100
...CENTRAL KENTUCKY...

CITY           SKY/WX    TMP DP  RH WIND       PRES   REMARKS
MT STERLING*   CLOUDY    36  34  93 N3        30.18S
FLEMING/MASON* CLOUDY    34  32  93 CALM      30.18S
DANVILLE*      DRIZZLE   36  34  93 N5        30.18S WCI  32
RICHMOND*      CLOUDY    36  34  93 CALM      30.16S
LEXINGTON      CLOUDY    35  33  92 N7        30.17R FOG     WCI  29
6HR MIN TEMP:  34; 6HR MAX TEMP:  37;

FRANKFORT      CLOUDY    35  31  85 NW5       30.18R WCI  31
6HR MIN TEMP:  35; 6HR MAX TEMP:  37;

$$

KYZ091>093-OHZ055-061-077-WVZ005-015-034-035-042-290100
...SOUTHERN OHIO/WEST VIRGINIA...

CITY           SKY/WX    TMP DP  RH WIND       PRES   REMARKS
COVINGTON      CLOUDY    35  27  72 NW5       30.18R WCI  31
COLUMBUS       CLOUDY    36  29  75 NW6       30.14S WCI  31
DAYTON         CLOUDY    33  28  81 NW6       30.18R WCI  28
WILMINGTON     CLOUDY    35  28  75 NW5       30.16R WCI  31
HUNTINGTON     LGT RAIN  37  36  96 NW6       30.16R FOG     WCI  32
CHARLESTON     LGT RAIN  40  38  93 NW7       30.14R FOG
PINEVILLE*     CLOUDY    48  48 100 MISG      30.12R
BECKLEY        LGT RAIN  42  40  92 N13       30.07R VSB 1/4
BLUEFIELD      CLOUDY    46  43  89 W6        30.05R FOG
$$

VAZ002-007-008-TNZ017-027-036-066-071-290100
...SOUTHWEST VIRGINIA/EAST TENNESSEE...

CITY           SKY/WX    TMP DP  RH WIND       PRES   REMARKS
WISE*          LGT RAIN  45  45 100 CALM      30.10R VSB 3/4
JONESVILLE*    LGT RAIN  48  48 100 CALM      30.13R
ABINGDON*      CLOUDY    48  48 100 W3        30.09R FOG
BRISTOL        FOG       48  48 100 CALM      30.11R VSB 1
KNOXVILLE      CLOUDY    50  49  96 CALM      30.10R FOG
OAK RIDGE      CLOUDY    51  50  96 CALM      30.12R FOG
CROSSVILLE     LGT RAIN  44  42  93 NW3       30.12R
NASHVILLE      LGT RAIN  39  37  92 N9        30.18S WCI  33
$$

...KEY TO REMARKS...
VSB - VISIBILITY IN MILES
WCI - WIND CHILL INDEX
HX  - HEAT INDEX

$$


USA.gov is the U.S. government's official web portal to all federal, state and local government web resources and services.